Location: Newark
(46.7000°N, 60.6000°W)
Time: 23:31:04
(UTC+00:00)

Transit 2A Rocket - Pass Details

Date: 03 November 2020
Orbit: 588 x 915 km, 66.7° (Epoch: 24 November)

Event Time Altitude Azimuth Distance (km) Brightness Sun altitude
Rises 21:56:15 0° 316° (NW) 3,230 8.8 -12.9°
Reaches altitude 10° 21:59:11 10° 302° (WNW) 2,236 8.2 -13.4°
Maximum altitude 22:03:00 22° 253° (WSW) 1,503 7.5 -14.0°
Drops below altitude 10° 22:06:34 10° 203° (SSW) 2,070 7.6 -14.6°
Sets 22:09:11 0° 187° (S) 2,926 8.2 -15.1°
